Weather History for Keene, NH

Change the Weather History Date:

Thursday, November 24, 2011

  Actual Average Record
Temperature  
Mean Temperature 34 °F -  
Max Temperature 39 °F 43 °F 67 °F (1979)
Min Temperature 28 °F 27 °F 3 °F (1989)
Degree Days  
Heating Degree Days 32    
Moisture  
Dew Point 28 °F    
Average Humidity 77    
Maximum Humidity 100    
Minimum Humidity 60    
Precipitation  
Precipitation 0.00 in - - ()
Sea Level Pressure  
Sea Level Pressure 30.09 in    
Wind  
Wind Speed 5 mph (NNW)    
Max Wind Speed 12 mph    
Max Gust Speed -    
Visibility 9 miles    
Events      
Averages and records for this station are not official NWS values.
T = Trace of Precipitation, MM = Missing Value Source: NWS Daily Summary

Daily Weather History Graph

Daily Weather History Graph

Search for Another Location

Airport:

Trip Planner

Search our weather history database for the weather conditions in past years. The results will help you decide how hot, cold, wet, or windy it might be!

Date:

Astronomy

Nov. 24, 2011 Rise Set
Actual Time 6:51 AM EST 4:19 PM EST
Civil Twilight 6:20 AM EST 4:50 PM EST
Nautical Twilight 5:45 AM EST 5:25 PM EST
Astronomical Twilight 5:12 AM EST 5:58 PM EST
Moon 6:06 AM EST (11/24) 3:46 PM EST (11/24)
Length of Visible Light 10h 29m
Length of Day
9h 27m
Waning Crescent, 0% of the Moon is Illuminated
Nov 24
Waning Crescent
Nov 25
New
Dec 2
First Quarter
Dec 10
Full
Dec 17
Last Quarter

Hourly Weather History & Observations

Time (EST) Temp. Windchill Dew Point Humidity Pressure Visibility Wind Dir Wind Speed Gust Speed Precip Events Conditions
12:35 AM 33.8 °F 26.4 °F 30.2 °F 87% 29.97 in 10.0 mi North 9.2 mph - N/A   Overcast
12:55 AM 33.8 °F 27.0 °F 28.4 °F 81% 29.98 in 10.0 mi North 8.1 mph - N/A   Overcast
1:15 AM 33.8 °F 25.3 °F 28.4 °F 81% 29.99 in 10.0 mi North 11.5 mph - N/A   Overcast
1:35 AM 33.8 °F 30.8 °F 30.2 °F 87% 29.99 in 10.0 mi NNW 3.5 mph - N/A   Overcast
1:55 AM 33.8 °F 27.7 °F 28.4 °F 81% 30.00 in 10.0 mi North 6.9 mph - N/A   Overcast
2:15 AM 33.8 °F 27.0 °F 28.4 °F 81% 30.01 in 10.0 mi NNW 8.1 mph - N/A   Overcast
2:35 AM 33.8 °F 30.8 °F 28.4 °F 81% 30.02 in 10.0 mi North 3.5 mph - N/A   Overcast
3:15 AM 33.8 °F 29.6 °F 26.6 °F 75% 30.02 in 10.0 mi North 4.6 mph - N/A   Overcast
3:35 AM 33.8 °F 27.7 °F 28.4 °F 81% 30.03 in 10.0 mi North 6.9 mph - N/A   Overcast
3:55 AM 33.8 °F 29.6 °F 28.4 °F 81% 30.03 in 10.0 mi North 4.6 mph - N/A   Overcast
4:15 AM 33.8 °F 29.6 °F 26.6 °F 75% 30.04 in 10.0 mi North 4.6 mph - N/A   Overcast
4:35 AM 33.8 °F 28.6 °F 26.6 °F 75% 30.05 in 10.0 mi NNW 5.8 mph - N/A   Overcast
4:55 AM 33.8 °F - 26.6 °F 75% 30.05 in 10.0 mi Calm Calm - N/A   Overcast
5:15 AM 33.8 °F 30.8 °F 26.6 °F 75% 30.07 in 10.0 mi NNW 3.5 mph - N/A   Overcast
5:55 AM 33.8 °F 30.8 °F 26.6 °F 75% 30.07 in 10.0 mi NW 3.5 mph - N/A   Overcast
6:15 AM 33.8 °F 29.6 °F 26.6 °F 75% 30.08 in 10.0 mi NW 4.6 mph - N/A   Overcast
6:55 AM 33.8 °F 29.6 °F 24.8 °F 70% 30.10 in 10.0 mi WNW 4.6 mph - N/A   Overcast
7:15 AM 33.8 °F 28.6 °F 26.6 °F 75% 30.11 in 10.0 mi NNW 5.8 mph - N/A   Overcast
7:35 AM 33.8 °F 28.6 °F 26.6 °F 75% 30.10 in 10.0 mi North 5.8 mph - N/A   Overcast
7:55 AM 33.8 °F 28.6 °F 24.8 °F 70% 30.12 in 10.0 mi North 5.8 mph - N/A   Overcast
8:15 AM 33.8 °F - 26.6 °F 75% 30.11 in 10.0 mi Calm Calm - N/A   Overcast
8:55 AM 33.8 °F 28.6 °F 26.6 °F 75% 30.13 in 10.0 mi North 5.8 mph - N/A   Scattered Clouds
9:15 AM 33.8 °F 28.6 °F 26.6 °F 75% 30.13 in 10.0 mi North 5.8 mph - N/A   Overcast
9:35 AM 35.6 °F 31.7 °F 26.6 °F 70% 30.13 in 10.0 mi North 4.6 mph - N/A   Overcast
9:55 AM 35.6 °F 29.9 °F 26.6 °F 70% 30.13 in 10.0 mi NW 6.9 mph - N/A   Overcast
10:15 AM 35.6 °F 30.7 °F 26.6 °F 70% 30.13 in 10.0 mi NNW 5.8 mph - N/A   Overcast
10:35 AM 35.6 °F 32.8 °F 24.8 °F 65% 30.12 in 10.0 mi North 3.5 mph - N/A   Mostly Cloudy
10:55 AM 35.6 °F 29.9 °F 26.6 °F 70% 30.12 in 10.0 mi North 6.9 mph - N/A   Scattered Clouds
11:35 AM 37.4 °F 32.8 °F 24.8 °F 60% 30.11 in 10.0 mi North 5.8 mph - N/A   Partly Cloudy
11:55 AM 37.4 °F 32.1 °F 28.4 °F 70% 30.11 in 10.0 mi North 6.9 mph - N/A   Mostly Cloudy
12:15 PM 39.2 °F 34.2 °F 28.4 °F 65% 30.11 in 10.0 mi North 6.9 mph - N/A   Mostly Cloudy
12:55 PM 39.2 °F 34.2 °F 26.6 °F 61% 30.10 in 10.0 mi NNW 6.9 mph - N/A   Mostly Cloudy
1:15 PM 39.2 °F 37.0 °F 26.6 °F 61% 30.10 in 10.0 mi NNW 3.5 mph - N/A   Overcast
1:35 PM 39.2 °F - 28.4 °F 65% 30.10 in 10.0 mi Calm Calm - N/A   Overcast
1:55 PM 39.2 °F 35.9 °F 28.4 °F 65% 30.10 in 10.0 mi NNW 4.6 mph - N/A   Overcast
2:15 PM 39.2 °F - 26.6 °F 61% 30.10 in 10.0 mi Calm Calm - N/A   Overcast
3:15 PM 39.2 °F - 28.4 °F 65% 30.11 in 10.0 mi Calm Calm - N/A   Overcast
3:35 PM 39.2 °F 37.0 °F 28.4 °F 65% 30.12 in 10.0 mi SSW 3.5 mph - N/A   Overcast
3:55 PM 39.2 °F - 28.4 °F 65% 30.11 in 10.0 mi Calm Calm - N/A   Overcast
4:15 PM 39.2 °F 35.9 °F 30.2 °F 70% 30.11 in 10.0 mi South 4.6 mph - N/A   Overcast
4:35 PM 37.4 °F - 32.0 °F 81% 30.12 in 10.0 mi Calm Calm - N/A   Overcast
5:15 PM 35.6 °F - 30.2 °F 81% 30.12 in 10.0 mi Calm Calm - N/A   Clear
5:35 PM 33.8 °F 30.8 °F 30.2 °F 87% 30.13 in 10.0 mi South 3.5 mph - N/A   Clear
5:55 PM 33.8 °F 29.6 °F 28.4 °F 81% 30.13 in 10.0 mi SSW 4.6 mph - N/A   Clear
6:15 PM 32.0 °F - 28.4 °F 87% 30.13 in 10.0 mi Calm Calm - N/A   Clear
6:35 PM 30.2 °F 26.7 °F 28.4 °F 93% 30.13 in 10.0 mi SSW 3.5 mph - N/A   Clear
6:55 PM 30.2 °F - 26.6 °F 86% 30.13 in 10.0 mi Calm Calm - N/A   Clear
7:15 PM 30.2 °F - 28.4 °F 93% 30.15 in 10.0 mi Calm Calm - N/A   Clear
8:35 PM 28.4 °F - 26.6 °F 93% 30.14 in 3.0 mi Calm Calm - N/A   Clear
8:55 PM 28.4 °F - 26.6 °F 93% 30.13 in 5.0 mi Calm Calm - N/A   Clear
9:15 PM 28.4 °F - 26.6 °F 93% 30.13 in 3.0 mi Calm Calm - N/A   Clear
9:35 PM 28.4 °F - 26.6 °F 93% 30.13 in 1.0 mi Calm Calm - N/A   Clear
9:55 PM 28.4 °F - 28.4 °F 100% 30.12 in 4.0 mi Calm Calm - N/A   Clear
10:35 PM 28.4 °F - 26.6 °F 93% 30.12 in 1.0 mi Calm Calm - N/A   Clear
10:55 PM 28.4 °F - 26.6 °F 93% 30.12 in 2.5 mi Calm Calm - N/A   Partly Cloudy
11:15 PM 28.4 °F - 24.8 °F 86% 30.11 in 2.5 mi Calm Calm - N/A   Mostly Cloudy
11:35 PM 26.6 °F - 26.6 °F 100% 30.11 in 0.5 mi Calm Calm - N/A   Overcast